(164) Eva
ephemeris date magn radius delta ra dec elong phase
Today25 Aug 202611.11.764 AU0.938 AU00h37m-52°10'129.6°26.2°
Opposition31 Aug 202611.01.754 AU0.931 AU00h36m-53°17'129.4°26.4°
(164) Eva - 2026-08-25
astro.vanbuitenen.nl


 
-1 year
-1 month
-1 day
Now
+1 day
+1 month
+1 year

The interactive orbit chart above shows the body's path through the solar system and its position at the given date. Green and blue lines are shown perpendicular to the ecliptic plane: Green if the path is above the ecliptic plane, blue if it is below. (Left-click and drag to rotate the view; Right-click and drag to move the view; Use scroll wheel to zoom in our out.)

The orbital elements of Eva are:

            e (Eccentricity)                : 0.3462488
            a (Semimajor axis)              : 2.6327804
            i (Inclination)                 : 24.47311
            Ω (Longitude of ascending node) : 76.77959
            ω (Argument of perihelion)      : 284.00697
            M (Mean anomaly)                : 330.59377
            Epoch                           : 2026 Jun 09

            L (Longitude of perihelion)     : 2.10692
            B (Latitude of perihelion)      : -23.70004
            P (Orbital period in years)     : 4.27            
        

The light curve chart below shows the estimated development of the minor planet's magnitude.


The all-sky chart below shows the path of the minor planet over the same period as the light curve. The current position is marked yellow.





The following chart shows the path of the minor planet in the next few days. The field of view is optimized for (~10x50) binoculars and finderscopes.




Ephemerides:
Date       Time       RA (2000)    DEC (2000)    delta   radius  elong  phase   PA    magn
2026-08-25 00:00 UT   00 37 27.0   -52 10 09     0.938    1.764  129.6   26.2   312   11.1 
2026-08-25 18:03 UT   00 37 26.5   -52 18 57     0.937    1.763  129.6   26.2   313   11.0 
2026-08-26 00:00 UT   00 37 25.9   -52 21 48     0.937    1.762  129.6   26.2   313   11.0 
2026-08-27 00:00 UT   00 37 21.7   -52 33 01     0.935    1.761  129.6   26.2   314   11.0 
2026-08-28 00:00 UT   00 37 14.3   -52 43 49     0.934    1.759  129.6   26.3   316   11.0 
2026-08-29 00:00 UT   00 37 03.8   -52 54 09     0.933    1.758  129.5   26.3   317   11.0 
2026-08-30 00:00 UT   00 36 50.1   -53 04 02     0.932    1.756  129.5   26.4   319   11.0 
2026-08-31 00:00 UT   00 36 33.4   -53 13 25     0.931    1.755  129.4   26.4   320   11.0 
2026-09-01 00:00 UT   00 36 13.6   -53 22 20     0.930    1.753  129.3   26.4   321   11.0 
2026-09-02 00:00 UT   00 35 50.8   -53 30 43     0.930    1.752  129.2   26.5   323   11.0 
2026-09-03 00:00 UT   00 35 25.1   -53 38 36     0.929    1.750  129.1   26.6   324   11.0 
2026-09-04 00:00 UT   00 34 56.5   -53 45 55     0.928    1.749  129.0   26.6   326   11.0 
2026-09-05 00:00 UT   00 34 25.0   -53 52 42     0.928    1.748  128.9   26.7   327   11.0 
2026-09-06 00:00 UT   00 33 50.9   -53 58 54     0.928    1.746  128.8   26.7   329   11.0 
2026-09-07 00:00 UT   00 33 14.2   -54 04 31     0.928    1.745  128.7   26.8   330   11.0 
2026-09-08 00:00 UT   00 32 34.9   -54 09 32     0.927    1.744  128.6   26.9   332   11.0 
2026-09-09 00:00 UT   00 31 53.2   -54 13 56     0.927    1.743  128.4   26.9   333   11.0 
2026-09-10 00:00 UT   00 31 09.2   -54 17 43     0.928    1.741  128.3   27.0   335   11.0 
2026-09-11 00:00 UT   00 30 23.1   -54 20 51     0.928    1.740  128.2   27.1   336   11.0 
2026-09-12 00:00 UT   00 29 34.9   -54 23 20     0.928    1.739  128.0   27.1   337   11.0 
2026-09-13 00:00 UT   00 28 44.9   -54 25 10     0.928    1.738  127.8   27.2   339   11.0 
2026-09-14 00:00 UT   00 27 53.2   -54 26 19     0.929    1.737  127.7   27.3   340   11.0 
2026-09-15 00:00 UT   00 26 60.0   -54 26 47     0.930    1.736  127.5   27.4   342   11.0 
2026-09-16 00:00 UT   00 26 05.3   -54 26 34     0.930    1.735  127.3   27.4   343   11.0 
2026-09-17 00:00 UT   00 25 09.5   -54 25 39     0.931    1.734  127.1   27.5   345   11.0 
2026-09-18 00:00 UT   00 24 12.5   -54 24 03     0.932    1.733  126.9   27.6   346   11.0 
2026-09-19 00:00 UT   00 23 14.7   -54 21 44     0.933    1.732  126.7   27.7   348   11.0 
2026-09-20 00:00 UT   00 22 16.2   -54 18 43     0.934    1.731  126.5   27.8   349   11.0 
2026-09-21 00:00 UT   00 21 17.1   -54 14 59     0.935    1.731  126.3   27.9   351   11.1 
2026-09-22 00:00 UT   00 20 17.6   -54 10 33     0.936    1.730  126.1   28.0   352   11.1 
2026-09-23 00:00 UT   00 19 17.9   -54 05 24     0.938    1.729  125.9   28.0   354   11.1 
2026-09-24 00:00 UT   00 18 18.1   -53 59 32     0.939    1.728  125.7   28.1   355   11.1 


    Terminology:
            
    delta:  distance between minor planet and earth in AU
    radius: distance between minor planet and sun in AU
    magn:   magnitude (brightness) estimate    
    ra:     right ascension in hours (24h = 360deg)
    dec:    declination in degrees
    elong:  elongation in degrees (angle sun-earth-minor planet)    
    phase:  phase angle in degrees (angle sun-minor planet-earth)        
    AU:     Astronomical Unit (mean distance between earth and sun: 149597870.7 km
    

Orbital elements provided by the MPC (Minor Planet Center).
Calculations by a modified version of AAPlus, a C# implementation of the AA+ project by PJ Naughter from the algorithms presented in the book "Astronomical Algorithms" by Jean Meeus.
NGC2000 dso catalog and star labels from VizieR as provided by the Strasbourg astronomical Data Center.
Tycho2 catalog from the ESO archive.